EW5526 Partanna IT current weather conditions

sailwx.info

Wind from 302 at 2 knots gusting 5

Air temperature 26.7° C
Dewpoint 16.6° C

Last reported at 2020-Aug-12 18:01 UTC.
Time now 2020-Aug-12 18:25 UTC

Location: N 37°44' E 012°54'.
View on Google Maps.

See reports from other nearby stations

  
Tides and Currents Weather Stations Pressure Air Temp Water Temp Dewpoint Dewpoint Depression Visibility Wind Speed Wind Dir Waves Ship Positions
date/time (UTC)wind fromknots sea level pressurealtimeterstation pressurevisibilityair tempwater tempwave heightnotes
2020-Aug-12 18:01 302 2 gusting 5 26.7
2020-Aug-12 17:56 335 4 gusting 5 26.7
2020-Aug-12 17:51 320 1 gusting 6 26.7
2020-Aug-12 17:46 294 6 gusting 6 26.7
2020-Aug-12 17:41 312 4 gusting 6 26.7
2020-Aug-12 17:36 288 3 gusting 6 26.7
2020-Aug-12 17:31 315 6 gusting 7 27.2
2020-Aug-12 17:26 295 2 gusting 7 27.2
2020-Aug-12 17:21 318 5 gusting 6 27.2
2020-Aug-12 17:16 27.8
2020-Aug-12 17:11 320 2 gusting 6 27.8
2020-Aug-12 17:06 333 6 gusting 6 27.8
2020-Aug-12 17:01 335 4 gusting 6 27.8
2020-Aug-12 16:56 27.8
2020-Aug-12 16:51 352 5 gusting 9 27.8
2020-Aug-12 16:46 323 4 gusting 9 27.8
2020-Aug-12 16:41 006 3 gusting 8 28.3
2020-Aug-12 16:36 308 6 gusting 8 28.3
2020-Aug-12 16:31 315 7 gusting 10 28.3
2020-Aug-12 16:26 328 10 gusting 10 28.9
2020-Aug-12 16:21 305 6 gusting 9 28.9
2020-Aug-12 16:16 349 3 gusting 9 28.9
2020-Aug-12 16:11 311 5 gusting 10 28.3
2020-Aug-12 16:06 357 6 gusting 10 28.9
2020-Aug-12 16:01 312 6 gusting 8 28.9
2020-Aug-12 15:56 340 6 gusting 8 28.9
2020-Aug-12 15:51 28.9
2020-Aug-12 15:46 349 6 gusting 9 28.9
2020-Aug-12 15:41 326 4 gusting 7 29.4
2020-Aug-12 15:36 320 6 gusting 8 28.9
2020-Aug-12 15:31 296 6 gusting 8 29.4
2020-Aug-12 15:26 342 5 gusting 8 30.0
2020-Aug-12 15:21 320 4 gusting 8 30.6
2020-Aug-12 15:16 337 5 gusting 6 30.6
2020-Aug-12 15:11 182 2 gusting 6 31.1
2020-Aug-12 15:06 288 3 gusting 8 31.1
2020-Aug-12 15:01 268 1 gusting 8 31.7
2020-Aug-12 14:56 175 1 gusting 7 31.7
2020-Aug-12 14:51 282 1 gusting 7 31.7
2020-Aug-12 14:46 260 1 gusting 6 32.2
2020-Aug-12 14:41 195 2 gusting 6 32.2
2020-Aug-12 14:36 152 1 gusting 6 32.2
2020-Aug-12 14:31 168 4 gusting 6 32.8
2020-Aug-12 14:26 210 2 gusting 6 32.2
2020-Aug-12 14:21 287 32.2
2020-Aug-12 14:16 329 2 gusting 5 31.7
2020-Aug-12 14:11 330 5 gusting 5 32.2
2020-Aug-12 14:06 346 4 gusting 8 32.2
2020-Aug-12 14:01 232 5 gusting 8 32.2
2020-Aug-12 13:56 309 2 gusting 8 32.2
2020-Aug-12 13:51 210 0 gusting 5 31.7
2020-Aug-12 13:46 333 5 gusting 6 31.7
2020-Aug-12 13:41 215 2 gusting 6 32.2
2020-Aug-12 13:36 234 0 gusting 8 32.2
2020-Aug-12 13:31 210 4 gusting 8 32.2
2020-Aug-12 13:26 210 6 gusting 9 32.2
2020-Aug-12 13:21 222 1 gusting 9 32.2
2020-Aug-12 13:16 206 6 gusting 8 32.2
2020-Aug-12 13:11 217 5 gusting 9 32.2
2020-Aug-12 13:06 206 4 gusting 9 32.2
2020-Aug-12 13:01 189 5 gusting 11 32.2
2020-Aug-12 12:56 178 3 gusting 11 32.2
2020-Aug-12 12:51 203 8 gusting 10 32.2
2020-Aug-12 12:46 179 4 gusting 8 32.2
2020-Aug-12 12:41 229 5 gusting 6 32.2
2020-Aug-12 12:36 264 5 gusting 7 32.2
2020-Aug-12 12:31 241 5 gusting 7 32.2
2020-Aug-12 12:26 319 1 gusting 7 32.2
2020-Aug-12 12:21 278 3 gusting 8 32.8
2020-Aug-12 12:16 209 2 gusting 8 32.8
2020-Aug-12 12:11 182 4 gusting 11 32.8
2020-Aug-12 12:06 270 2 gusting 11 32.8
2020-Aug-12 12:01 176 6 gusting 8 32.2
2020-Aug-12 11:56 230 2 gusting 4 31.7
2020-Aug-12 11:51 349 2 gusting 4 32.2
2020-Aug-12 11:46 216 2 gusting 6 32.8
2020-Aug-12 11:41 268 1 gusting 6 32.8
2020-Aug-12 11:36 038 1 gusting 5 32.8
2020-Aug-12 11:31 154 1 gusting 6 32.2
2020-Aug-12 11:26 215 6 gusting 6 32.2
2020-Aug-12 11:21 226 1 gusting 6 32.2
2020-Aug-12 11:16 237 4 gusting 5 31.7
2020-Aug-12 11:11 215 0 gusting 5 31.1
2020-Aug-12 11:06 191 0 gusting 6 31.1
2020-Aug-12 11:01 237 1 gusting 6 31.1
2020-Aug-12 10:56 128 4 gusting 6 31.1
2020-Aug-12 10:51 213 4 gusting 6 31.1
2020-Aug-12 10:46 244 0 gusting 6 31.1
2020-Aug-12 10:41 158 5 gusting 6 31.1
2020-Aug-12 10:36 178 0 gusting 3 31.1
2020-Aug-12 10:31 144 0 gusting 5 31.1
2020-Aug-12 10:26 137 3 gusting 5 30.6
2020-Aug-12 10:21 068 0 gusting 5 30.6
2020-Aug-12 10:16 175 3 gusting 7 30.6
2020-Aug-12 10:11 185 7 gusting 7 30.6
2020-Aug-12 10:06 123 0 gusting 4 30.6
2020-Aug-12 10:01 212 3 gusting 5 30.6
2020-Aug-12 09:56 226 2 gusting 5 30.0
2020-Aug-12 09:51 260 30.0
2020-Aug-12 09:46 202 4 gusting 6 30.0
2020-Aug-12 09:41 131 2 gusting 6 30.0
2020-Aug-12 09:36 169 2 gusting 4 30.0
2020-Aug-12 09:31 206 1 gusting 4 29.4
2020-Aug-12 09:26 208 3 gusting 5 29.4
2020-Aug-12 09:21 210 2 gusting 5 29.4
2020-Aug-12 09:16 196 0 gusting 5 29.4
2020-Aug-12 09:11 210 4 gusting 5 28.9
2020-Aug-12 09:06 176 1 gusting 6 28.9
2020-Aug-12 09:01 199 1 gusting 6 28.9
2020-Aug-12 08:56 178 0 gusting 4 28.3
2020-Aug-12 08:51 179 1 gusting 4 28.3
2020-Aug-12 08:46 28.3
2020-Aug-12 08:41 175 2 gusting 6 28.3
2020-Aug-12 08:36 258 5 gusting 6 27.8
2020-Aug-12 08:31 305 1 gusting 4 27.8
2020-Aug-12 08:26 280 1 gusting 4 27.8
2020-Aug-12 08:21 216 0 gusting 5 27.8
2020-Aug-12 08:16 206 2 gusting 5 27.2
2020-Aug-12 08:11 233 0 gusting 5 27.2
2020-Aug-12 08:06 217 3 gusting 5 26.7
2020-Aug-12 08:01 206 3 gusting 5 26.1
2020-Aug-12 07:56 326 1 gusting 5 26.1
2020-Aug-12 07:51 174 2 gusting 5 26.1
2020-Aug-12 07:46 291 1 gusting 5 26.1
2020-Aug-12 07:41 244 1 gusting 4 25.6
2020-Aug-12 07:36 244 3 gusting 4 25.6
2020-Aug-12 07:31 240 2 gusting 5 25.6
2020-Aug-12 07:26 240 1 gusting 5 25.6
2020-Aug-12 07:21 359 25.0
2020-Aug-12 07:16 246 1 gusting 2 24.4
2020-Aug-12 07:11 210 1 gusting 4 24.4
2020-Aug-12 07:06 271 1 gusting 4 24.4
2020-Aug-12 07:01 178 24.4
2020-Aug-12 06:56 234 23.9
2020-Aug-12 06:51 339 0 gusting 2 23.9
2020-Aug-12 06:46 205 1 gusting 4 23.3
2020-Aug-12 06:41 322 1 gusting 4 23.3
2020-Aug-12 06:36 319 2 gusting 2 23.3
2020-Aug-12 06:31 184 1 gusting 1 23.3
2020-Aug-12 06:26 312 0 gusting 1 23.3
2020-Aug-12 06:21 244 22.8
2020-Aug-12 06:16 337 0 gusting 2 22.8
2020-Aug-12 06:11 339 2 gusting 2 22.8
2020-Aug-12 06:06 248 1 gusting 2 22.8
2020-Aug-12 06:01 311 0 gusting 1 22.2
2020-Aug-12 05:56 311 22.2
2020-Aug-12 05:51 315 0 gusting 2 22.2
2020-Aug-12 05:46 263 0 gusting 1 22.2
2020-Aug-12 05:41 263 0 gusting 1 22.2
2020-Aug-12 05:36 251 22.2
2020-Aug-12 05:31 251 0 gusting 0 22.2
2020-Aug-12 05:26 251 22.2
2020-Aug-12 05:21 251 0 gusting 2 22.2
2020-Aug-12 05:16 251 0 gusting 4 22.2
2020-Aug-12 05:11 191 0 gusting 4 22.2
2020-Aug-12 05:06 031 0 gusting 3 22.2
2020-Aug-12 05:01 296 0 gusting 4 22.2
2020-Aug-12 04:56 330 0 gusting 4 22.8
2020-Aug-12 04:51 267 0 gusting 2 22.2
2020-Aug-12 04:46 250 1 gusting 2 22.2
2020-Aug-12 04:41 234 2 gusting 2 22.2
2020-Aug-12 04:36 186 1 gusting 2 22.2
2020-Aug-12 04:31 237 0 gusting 2 22.2
2020-Aug-12 04:26 254 2 gusting 2 22.2
2020-Aug-12 04:21 241 1 gusting 2 22.8
2020-Aug-12 04:16 256 0 gusting 2 22.8
2020-Aug-12 04:11 213 0 gusting 2 22.8
2020-Aug-12 04:06 246 0 gusting 1 22.8
2020-Aug-12 04:01 234 0 gusting 2 23.3
2020-Aug-12 03:56 232 0 gusting 2 23.3
2020-Aug-12 03:51 058 0 gusting 0 23.3
2020-Aug-12 03:46 052 0 gusting 0 23.3
2020-Aug-12 03:41 052 23.3
2020-Aug-12 03:36 052 23.3
2020-Aug-12 03:31 052 23.3
2020-Aug-12 03:26 052 23.3
2020-Aug-12 03:21 052 23.3
2020-Aug-12 03:16 052 22.8
2020-Aug-12 03:11 052 0 gusting 1 22.8
2020-Aug-12 03:06 048 22.8
2020-Aug-12 03:01 048 22.8
2020-Aug-12 02:56 048 22.8
2020-Aug-12 02:51 048 23.3
2020-Aug-12 02:46 048 23.3
2020-Aug-12 02:41 048 23.3
2020-Aug-12 02:36 048 23.3
2020-Aug-12 02:31 048 23.3
2020-Aug-12 02:26 048 23.3
2020-Aug-12 02:21 048 23.3
2020-Aug-12 02:16 048 1 gusting 1 22.8
2020-Aug-12 02:11 048 0 gusting 0 22.8
2020-Aug-12 02:06 048 22.8
2020-Aug-12 02:01 048 22.8
2020-Aug-12 01:56 048 22.8
2020-Aug-12 01:51 048 22.8
2020-Aug-12 01:46 048 22.8
2020-Aug-12 01:41 048 22.8
2020-Aug-12 01:36 048 22.8
2020-Aug-12 01:31 048 22.8
2020-Aug-12 01:26 048 22.8
2020-Aug-12 01:21 048 0 gusting 0 22.8
2020-Aug-12 01:16 048 22.8
2020-Aug-12 01:11 048 0 gusting 1 22.8
2020-Aug-12 01:06 048 1 gusting 1 22.8
2020-Aug-12 01:01 048 0 gusting 1 22.8
2020-Aug-12 00:56 048 0 gusting 1 22.8
2020-Aug-12 00:51 048 22.8
2020-Aug-12 00:46 048 22.8
2020-Aug-12 00:41 048 0 gusting 1 22.8
2020-Aug-12 00:36 061 1 gusting 1 22.8
2020-Aug-12 00:31 061 0 gusting 1 22.8
2020-Aug-12 00:26 076 0 gusting 1 23.3
2020-Aug-12 00:21 076 0 gusting 2 22.8
2020-Aug-12 00:16 076 1 gusting 2 22.8
2020-Aug-12 00:11 076 0 gusting 2 22.8
2020-Aug-12 00:06 076 1 gusting 2 22.8
2020-Aug-12 00:01 076 0 gusting 1 22.8
2020-Aug-11 23:56 076 0 gusting 1 22.8
2020-Aug-11 23:51 076 22.8
2020-Aug-11 23:46 079 22.8
2020-Aug-11 23:41 080 0 gusting 1 22.8
2020-Aug-11 23:36 080 0 gusting 1 22.8
2020-Aug-11 23:31 080 0 gusting 1 22.8
2020-Aug-11 23:26 079 22.8
2020-Aug-11 23:21 079 22.8
2020-Aug-11 23:16 079 22.8
2020-Aug-11 23:11 079 22.8
2020-Aug-11 23:06 079 22.8
2020-Aug-11 23:01 079 0 gusting 0 22.8
2020-Aug-11 22:56 079 0 gusting 0 22.8
2020-Aug-11 22:51 079 22.8
2020-Aug-11 22:46 079 0 gusting 1 22.8
2020-Aug-11 22:41 079 0 gusting 1 22.8
2020-Aug-11 22:36 083 0 gusting 1 23.3
2020-Aug-11 22:31 083 23.3
2020-Aug-11 22:26 083 23.3
2020-Aug-11 22:21 083 23.9
2020-Aug-11 22:16 085 1 gusting 2 23.9
2020-Aug-11 22:11 014 23.3
2020-Aug-11 22:06 23.3
2020-Aug-11 22:01 359 23.3
2020-Aug-11 21:56 359 23.3
2020-Aug-11 21:51 359 23.3
2020-Aug-11 21:46 359 23.3
2020-Aug-11 21:41 359 23.3
2020-Aug-11 21:36 359 23.3
2020-Aug-11 21:31 359 23.3
2020-Aug-11 21:26 359 1 gusting 2 23.3
2020-Aug-11 21:21 359 0 gusting 1 23.3
2020-Aug-11 21:16 359 0 gusting 1 23.3
2020-Aug-11 21:11 357 23.9
2020-Aug-11 21:06 357 0 gusting 1 23.9
2020-Aug-11 21:01 357 0 gusting 1 23.9
2020-Aug-11 20:56 359 0 gusting 1 23.9
2020-Aug-11 20:51 359 0 gusting 2 23.9
2020-Aug-11 20:46 357 1 gusting 2 23.9
2020-Aug-11 20:41 359 0 gusting 2 23.3
2020-Aug-11 20:36 001 2 gusting 2 23.9
2020-Aug-11 20:31 23.9
2020-Aug-11 20:26 014 0 gusting 2 23.9
2020-Aug-11 20:21 017 0 gusting 2 24.4
2020-Aug-11 20:16 023 0 gusting 1 25.0
2020-Aug-11 20:11 169 25.0
2020-Aug-11 20:06 171 25.0
2020-Aug-11 20:01 171 25.0
2020-Aug-11 19:56 171 25.0
2020-Aug-11 19:51 171 25.6
2020-Aug-11 19:46 171 25.6
2020-Aug-11 19:41 171 25.6
2020-Aug-11 19:36 171 25.6
2020-Aug-11 19:31 171 25.6
2020-Aug-11 19:26 171 25.6
2020-Aug-11 19:21 171 1 gusting 2 25.6
2020-Aug-11 19:16 171 1 gusting 2 25.6
2020-Aug-11 19:11 167 25.6
2020-Aug-11 19:06 167 0 gusting 0 25.6
2020-Aug-11 19:01 167 0 gusting 0 25.0
2020-Aug-11 18:56 167 25.6
2020-Aug-11 18:51 167 25.6
2020-Aug-11 18:46 167 25.6
2020-Aug-11 18:41 167 0 gusting 0 25.6
2020-Aug-11 18:36 167 25.6
2020-Aug-11 18:31 167 0 gusting 2 25.6
2020-Aug-11 18:26 178 0 gusting 2 25.6
2020-Aug-11 18:21 178 0 gusting 0 25.6
2020-Aug-11 18:16 178 25.6
2020-Aug-11 18:11 178 0 gusting 2 25.6
2020-Aug-11 18:06 178 0 gusting 4 25.6
2020-Aug-11 18:01 133 1 gusting 4 25.6
2020-Aug-11 17:56 130 0 gusting 2 26.1
2020-Aug-11 17:51 145 0 gusting 2 26.1
2020-Aug-11 17:46 145 26.1
2020-Aug-11 17:41 130 0 gusting 5 26.7
2020-Aug-11 17:36 110 1 gusting 5 26.7
2020-Aug-11 17:31 176 1 gusting 5 26.7
2020-Aug-11 17:26 127 1 gusting 6 26.7
2020-Aug-11 17:21 165 3 gusting 6 26.7
2020-Aug-11 17:16 165 5 gusting 5 27.2
2020-Aug-11 17:11 152 1 gusting 6 27.2
2020-Aug-11 17:06 134 4 gusting 6 27.2
2020-Aug-11 17:01 161 1 gusting 4 27.8
2020-Aug-11 16:56 138 27.8
2020-Aug-11 16:51 155 2 gusting 5 27.8
2020-Aug-11 16:46 162 2 gusting 5 27.8
2020-Aug-11 16:41 123 1 gusting 4 27.8
2020-Aug-11 16:36 150 2 gusting 4 27.8
2020-Aug-11 16:31 114 4 gusting 6 27.8
2020-Aug-11 16:26 110 1 gusting 6 27.8
2020-Aug-11 16:21 143 1 gusting 6 28.3
2020-Aug-11 16:16 107 1 gusting 6 28.3
2020-Aug-11 16:11 119 0 gusting 8 28.3
2020-Aug-11 16:06 102 2 gusting 8 28.9
2020-Aug-11 16:01 116 1 gusting 6 28.9
2020-Aug-11 15:56 093 2 gusting 6 28.9
2020-Aug-11 15:51 141 4 gusting 7 28.9
2020-Aug-11 15:46 133 5 gusting 7 28.9
2020-Aug-11 15:41 131 3 gusting 6 28.9
2020-Aug-11 15:36 147 2 gusting 6 28.9
2020-Aug-11 15:31 140 5 gusting 6 28.3
2020-Aug-11 15:26 133 2 gusting 6 28.3
2020-Aug-11 15:21 093 5 gusting 6 27.8
2020-Aug-11 15:16 147 4 gusting 6 27.8
2020-Aug-11 15:11 004 1 gusting 4 27.8
2020-Aug-11 15:06 27.8
2020-Aug-11 15:01 056 1 gusting 9 27.8
2020-Aug-11 14:56 023 4 gusting 9 28.3
2020-Aug-11 14:51 329 0 gusting 6 28.9
2020-Aug-11 14:46 032 1 gusting 6 30.0
2020-Aug-11 14:41 055 0 gusting 5 30.6
2020-Aug-11 14:36 271 2 gusting 6 30.6
2020-Aug-11 14:31 217 2 gusting 6 31.1
2020-Aug-11 14:26 172 2 gusting 6 31.1
2020-Aug-11 14:21 188 5 gusting 6 31.1
2020-Aug-11 14:16 280 0 gusting 6 31.1
2020-Aug-11 14:11 217 2 gusting 8 30.6
2020-Aug-11 14:06 215 2 gusting 8 30.6
2020-Aug-11 14:01 185 5 gusting 5 31.1
2020-Aug-11 13:56 31.1
2020-Aug-11 13:51 257 5 gusting 6 31.1
2020-Aug-11 13:46 213 1 gusting 6 31.1
2020-Aug-11 13:41 222 2 gusting 6 31.1
2020-Aug-11 13:36 182 1 gusting 6 30.6
2020-Aug-11 13:31 175 5 gusting 6 30.6
2020-Aug-11 13:26 172 3 gusting 8 30.6
2020-Aug-11 13:21 216 6 gusting 11 31.1
2020-Aug-11 13:16 188 11 gusting 11 31.1
2020-Aug-11 13:11 191 5 gusting 6 31.1
2020-Aug-11 13:06 164 1 gusting 6 31.1
2020-Aug-11 13:01 137 6 gusting 8 31.1
2020-Aug-11 12:56 195 6 gusting 9 31.1
2020-Aug-11 12:51 165 9 gusting 9 31.1
2020-Aug-11 12:46 184 2 gusting 7 31.1
2020-Aug-11 12:41 182 6 gusting 10 31.1
2020-Aug-11 12:36 191 6 gusting 10 30.6
2020-Aug-11 12:31 174 5 gusting 10 30.6
2020-Aug-11 12:26 186 1 gusting 10 30.6
2020-Aug-11 12:21 202 1 gusting 6 30.6
2020-Aug-11 12:16 206 4 gusting 6 30.6
2020-Aug-11 12:11 175 0 gusting 8 30.0
2020-Aug-11 12:06 169 5 gusting 8 30.0
2020-Aug-11 12:01 148 3 gusting 7 30.0
2020-Aug-11 11:56 160 1 gusting 9 30.0
2020-Aug-11 11:51 147 9 gusting 9 30.0
2020-Aug-11 11:46 196 2 gusting 7 30.0
2020-Aug-11 11:41 152 1 gusting 8 30.0
2020-Aug-11 11:36 136 5 gusting 8 29.4
2020-Aug-11 11:31 160 1 gusting 9 29.4
2020-Aug-11 11:26 120 8 gusting 9 30.0
2020-Aug-11 11:21 165 1 gusting 6 29.4
2020-Aug-11 11:16 196 6 gusting 6 30.0
2020-Aug-11 11:11 144 1 gusting 6 30.0
2020-Aug-11 11:06 191 4 gusting 8 30.0
2020-Aug-11 11:01 188 8 gusting 9 30.0
2020-Aug-11 10:56 136 6 gusting 9 30.0
2020-Aug-11 10:51 165 2 gusting 8 30.0
2020-Aug-11 10:46 165 3 gusting 8 30.0
2020-Aug-11 10:41 168 1 gusting 6 30.0
2020-Aug-11 10:37 144 1 gusting 7 30.0
2020-Aug-11 10:31 100 5 gusting 7 30.0
2020-Aug-11 10:26 130 2 gusting 5 30.0
2020-Aug-11 10:21 145 2 gusting 5 29.4
2020-Aug-11 10:16 136 0 gusting 4 29.4
2020-Aug-11 10:11 143 0 gusting 6 29.4
2020-Aug-11 10:06 134 4 gusting 6 29.4
2020-Aug-11 10:01 196 1 gusting 6 28.9
2020-Aug-11 09:56 117 3 gusting 6 29.4
2020-Aug-11 09:51 130 2 gusting 6 30.0
2020-Aug-11 09:46 160 2 gusting 6 30.0
2020-Aug-11 09:41 182 0 gusting 6 29.4
2020-Aug-11 09:36 121 1 gusting 2 29.4
2020-Aug-11 09:31 123 1 gusting 5 28.9
2020-Aug-11 09:26 151 5 gusting 5 28.9
2020-Aug-11 09:21 140 2 gusting 6 28.9
2020-Aug-11 09:16 106 3 gusting 6 28.9
2020-Aug-11 09:11 188 0 gusting 4 28.9
2020-Aug-11 09:06 198 0 gusting 5 28.9
2020-Aug-11 09:01 133 2 gusting 5 28.9
2020-Aug-11 08:56 106 4 gusting 4 28.9
2020-Aug-11 08:51 164 1 gusting 3 28.9
2020-Aug-11 08:46 244 28.9
2020-Aug-11 08:41 181 1 gusting 2 28.9
2020-Aug-11 08:36 086 28.3
2020-Aug-11 08:31 152 28.3
2020-Aug-11 08:26 151 1 gusting 4 28.3
2020-Aug-11 08:21 205 1 gusting 4 27.8
2020-Aug-11 08:16 168 27.8
2020-Aug-11 08:11 189 0 gusting 3 27.8
2020-Aug-11 08:06 192 1 gusting 2 27.2
2020-Aug-11 08:01 178 1 gusting 5 27.2
2020-Aug-11 07:56 157 2 gusting 5 27.2
2020-Aug-11 07:51 126 1 gusting 5 27.2
2020-Aug-11 07:46 144 0 gusting 2 27.2
2020-Aug-11 07:41 141 27.2
2020-Aug-11 07:36 127 0 gusting 1 26.7
2020-Aug-11 07:31 137 1 gusting 1 26.7
2020-Aug-11 07:26 137 1 gusting 1 26.1
2020-Aug-11 07:21 040 0 gusting 2 26.1
2020-Aug-11 07:16 020 0 gusting 2 25.6
2020-Aug-11 07:11 018 1 gusting 2 25.6
2020-Aug-11 07:06 047 0 gusting 3 25.6
2020-Aug-11 07:01 25.6
2020-Aug-11 06:56 038 2 gusting 2 25.6
2020-Aug-11 06:51 051 25.0
2020-Aug-11 06:46 352 0 gusting 2 24.4
2020-Aug-11 06:41 340 1 gusting 2 24.4
2020-Aug-11 06:36 028 24.4
2020-Aug-11 06:31 003 0 gusting 2 24.4
2020-Aug-11 06:26 021 0 gusting 4 24.4
2020-Aug-11 06:21 014 0 gusting 4 23.9
2020-Aug-11 06:16 027 23.9
2020-Aug-11 06:11 027 0 gusting 1 23.9
2020-Aug-11 06:06 030 0 gusting 1 23.3
2020-Aug-11 06:01 021 0 gusting 1 23.3
2020-Aug-11 05:56 021 0 gusting 2 22.8
2020-Aug-11 05:51 021 0 gusting 2 22.2
2020-Aug-11 05:46 016 0 gusting 2 22.2
2020-Aug-11 05:41 010 1 gusting 2 22.2
2020-Aug-11 05:36 020 0 gusting 2 22.2
2020-Aug-11 05:31 020 0 gusting 2 22.2
2020-Aug-11 05:26 020 0 gusting 2 21.7
2020-Aug-11 05:21 004 21.7
2020-Aug-11 05:16 003 0 gusting 1 21.7
2020-Aug-11 05:11 003 0 gusting 1 21.7
2020-Aug-11 05:06 003 0 gusting 1 21.7
2020-Aug-11 05:01 003 1 gusting 1 21.7
2020-Aug-11 04:56 003 22.2
2020-Aug-11 04:51 003 0 gusting 1 21.7
2020-Aug-11 04:46 003 21.7
2020-Aug-11 04:41 003 0 gusting 1 21.7
2020-Aug-11 04:36 003 0 gusting 1 21.7
2020-Aug-11 04:31 003 21.7
2020-Aug-11 04:26 003 21.7
2020-Aug-11 04:21 003 21.7
2020-Aug-11 04:16 003 22.2
2020-Aug-11 04:11 003 22.2
2020-Aug-11 04:06 003 22.2
2020-Aug-11 04:01 003 0 gusting 2 22.2
2020-Aug-11 03:56 003 0 gusting 2 22.2
2020-Aug-11 03:51 003 0 gusting 4 22.8
2020-Aug-11 03:46 021 1 gusting 4 22.8
2020-Aug-11 03:41 003 2 gusting 2 22.8
2020-Aug-11 03:36 22.8
2020-Aug-11 03:31 22.8
2020-Aug-11 03:26 359 1 gusting 2 22.2
2020-Aug-11 03:21 359 1 gusting 2 22.2
2020-Aug-11 03:16 359 1 gusting 2 22.2
2020-Aug-11 03:11 22.2
2020-Aug-11 03:06 22.2
2020-Aug-11 03:01 22.2
2020-Aug-11 02:56 22.2
2020-Aug-11 02:51 356 1 gusting 1 22.2
2020-Aug-11 02:46 356 0 gusting 2 22.2
2020-Aug-11 02:41 356 0 gusting 2 22.2
2020-Aug-11 02:36 356 0 gusting 1 22.2
2020-Aug-11 02:31 356 0 gusting 2 22.2
2020-Aug-11 02:26 356 1 gusting 2 22.2
2020-Aug-11 02:21 22.2
2020-Aug-11 02:16 004 0 gusting 2 22.2
2020-Aug-11 02:11 016 0 gusting 1 22.2
2020-Aug-11 02:06 020 0 gusting 1 22.2
2020-Aug-11 02:01 020 0 gusting 2 22.2
2020-Aug-11 01:56 020 1 gusting 2 22.2
2020-Aug-11 01:51 020 0 gusting 2 22.2
2020-Aug-11 01:46 22.2
2020-Aug-11 01:41 22.2
2020-Aug-11 01:36 22.2
2020-Aug-11 01:31 359 2 gusting 4 22.2
2020-Aug-11 01:26 001 1 gusting 2 22.2
2020-Aug-11 01:21 017 0 gusting 2 22.2
2020-Aug-11 01:16 020 1 gusting 1 22.2
2020-Aug-11 01:11 020 0 gusting 1 22.2
2020-Aug-11 01:06 020 0 gusting 1 22.2
2020-Aug-11 01:01 020 1 gusting 1 22.2
2020-Aug-11 00:56 020 0 gusting 1 22.2
2020-Aug-11 00:51 020 0 gusting 1 22.2
2020-Aug-11 00:46 020 22.2
2020-Aug-11 00:41 020 22.2
2020-Aug-11 00:36 020 22.2
2020-Aug-11 00:31 020 22.2
2020-Aug-11 00:26 020 22.2
2020-Aug-11 00:21 020 22.2
2020-Aug-11 00:16 020 22.2
2020-Aug-11 00:11 020 0 gusting 0 22.8
2020-Aug-11 00:06 020 22.8
2020-Aug-11 00:01 020 22.8
2020-Aug-10 23:56 020 0 gusting 1 22.8
2020-Aug-10 23:51 020 0 gusting 1 22.8
2020-Aug-10 23:46 020 1 gusting 1 22.8
2020-Aug-10 23:41 032 0 gusting 1 22.8
2020-Aug-10 23:36 034 1 gusting 2 22.8
2020-Aug-10 23:31 017 0 gusting 2 22.8
2020-Aug-10 23:26 013 2 gusting 2 23.3
2020-Aug-10 23:21 028 1 gusting 2 23.3
2020-Aug-10 23:16 031 0 gusting 2 23.3
2020-Aug-10 23:11 027 0 gusting 2 23.3
2020-Aug-10 23:06 23.3
2020-Aug-10 23:01 020 2 gusting 2 23.3
2020-Aug-10 22:56 359 0 gusting 2 22.8
2020-Aug-10 22:51 016 0 gusting 1 22.8
2020-Aug-10 22:46 016 1 gusting 1 22.8
2020-Aug-10 22:41 030 1 gusting 2 22.8
2020-Aug-10 22:36 030 1 gusting 2 22.8
2020-Aug-10 22:31 020 1 gusting 4 22.8
2020-Aug-10 22:26 22.8
2020-Aug-10 22:21 034 1 gusting 3 22.8
2020-Aug-10 22:16 016 0 gusting 3 22.8
2020-Aug-10 22:11 025 2 gusting 4 23.3
2020-Aug-10 22:06 023 4 gusting 4 23.3
2020-Aug-10 22:01 048 1 gusting 5 23.3
2020-Aug-10 21:56 027 2 gusting 5 23.3
2020-Aug-10 21:51 028 4 gusting 5 23.3
2020-Aug-10 21:46 032 1 gusting 5 23.3
2020-Aug-10 21:41 23.3
2020-Aug-10 21:36 23.3
2020-Aug-10 21:31 23.3
2020-Aug-10 21:26 003 2 gusting 5 23.9
2020-Aug-10 21:21 010 3 gusting 5 23.9
2020-Aug-10 21:16 020 1 gusting 4 23.9
2020-Aug-10 21:11 359 0 gusting 4 23.9
2020-Aug-10 21:06 23.9
2020-Aug-10 21:01 349 1 gusting 5 23.9
2020-Aug-10 20:56 021 2 gusting 5 23.9
2020-Aug-10 20:51 23.9
2020-Aug-10 20:46 23.9
2020-Aug-10 20:41 001 1 gusting 4 23.9
2020-Aug-10 20:36 23.9
2020-Aug-10 20:31 359 1 gusting 5 23.9
2020-Aug-10 20:26 028 5 gusting 5 23.9
2020-Aug-10 20:21 013 1 gusting 4 24.4
2020-Aug-10 20:16 24.4
2020-Aug-10 20:11 24.4
2020-Aug-10 20:06 354 0 gusting 5 24.4
2020-Aug-10 20:01 354 5 gusting 5 24.4
2020-Aug-10 19:56 24.4
2020-Aug-10 19:51 340 4 gusting 5 24.4
2020-Aug-10 19:46 030 1 gusting 4 25.0
2020-Aug-10 19:41 343 1 gusting 5 25.0
2020-Aug-10 19:36 333 0 gusting 6 25.0
2020-Aug-10 19:31 356 4 gusting 6 24.4
2020-Aug-10 19:26 24.4
2020-Aug-10 19:21 038 4 gusting 9 24.4
2020-Aug-10 19:16 356 6 gusting 6 24.4
2020-Aug-10 19:11 011 2 gusting 5 25.0
2020-Aug-10 19:06 340 3 gusting 6 25.0
2020-Aug-10 19:01 342 5 gusting 6 25.0
2020-Aug-10 18:56 336 4 gusting 6 25.0
2020-Aug-10 18:51 008 1 gusting 6 25.0
2020-Aug-10 18:46 337 2 gusting 6 25.0
2020-Aug-10 18:41 357 5 gusting 9 25.0
2020-Aug-10 18:36 328 1 gusting 9 25.0
2020-Aug-10 18:31 299 3 gusting 8 25.0
2020-Aug-10 18:26 280 4 gusting 9 25.0
2020-Aug-10 18:21 001 6 gusting 9 25.0
2020-Aug-10 18:16 296 9 gusting 11 25.0
2020-Aug-10 18:11 284 4 gusting 11 25.0
2020-Aug-10 18:06 288 5 gusting 9 25.0
2020-Aug-10 18:01 326 5 gusting 13 25.0